Year,Month,Day,Hour,Minute,Value (Times are PST for temperature in C)
2020,04,13,00,00,4.00
2020,04,13,00,01,3.90
2020,04,13,00,02,3.90
2020,04,13,00,03,3.90
2020,04,13,00,04,3.90
2020,04,13,00,05,3.90
2020,04,13,00,06,3.90
2020,04,13,00,07,3.90
2020,04,13,00,08,3.90
2020,04,13,00,09,3.90
2020,04,13,00,10,3.90
2020,04,13,00,11,3.80
2020,04,13,00,12,3.80
2020,04,13,00,13,3.80
2020,04,13,00,14,3.80
2020,04,13,00,15,3.80
2020,04,13,00,16,3.80
2020,04,13,00,17,3.80
2020,04,13,00,18,3.80
2020,04,13,00,19,3.80
2020,04,13,00,20,3.80
2020,04,13,00,21,3.80
2020,04,13,00,22,3.70
2020,04,13,00,23,3.70
2020,04,13,00,24,3.70
2020,04,13,00,25,3.70
2020,04,13,00,26,3.70
2020,04,13,00,27,3.70
2020,04,13,00,28,3.60
2020,04,13,00,29,3.60
2020,04,13,00,30,3.60
2020,04,13,00,31,3.60
2020,04,13,00,32,3.60
2020,04,13,00,33,3.50
2020,04,13,00,34,3.50
2020,04,13,00,35,3.40
2020,04,13,00,36,3.40
2020,04,13,00,37,3.40
2020,04,13,00,38,3.30
2020,04,13,00,39,3.30
2020,04,13,00,40,3.30
2020,04,13,00,41,3.20
2020,04,13,00,42,3.20
2020,04,13,00,43,3.20
2020,04,13,00,44,3.10
2020,04,13,00,45,3.10
2020,04,13,00,46,3.10
2020,04,13,00,47,3.10
2020,04,13,00,48,3.10
2020,04,13,00,49,3.00
2020,04,13,00,50,3.00
2020,04,13,00,51,3.00
2020,04,13,00,52,3.00
2020,04,13,00,53,3.00
2020,04,13,00,54,3.00
2020,04,13,00,55,3.00
2020,04,13,00,56,3.00
2020,04,13,00,57,2.90
2020,04,13,00,58,2.90
2020,04,13,00,59,2.90
2020,04,13,01,00,2.90
2020,04,13,01,01,2.90
2020,04,13,01,02,2.90
2020,04,13,01,03,2.90
2020,04,13,01,04,3.00
2020,04,13,01,05,3.00
2020,04,13,01,06,3.00
2020,04,13,01,07,3.00
2020,04,13,01,08,3.10
2020,04,13,01,09,3.10
2020,04,13,01,10,3.00
2020,04,13,01,11,3.00
2020,04,13,01,12,2.90
2020,04,13,01,13,2.90
2020,04,13,01,14,2.90
2020,04,13,01,15,2.90
2020,04,13,01,16,2.90
2020,04,13,01,17,2.80
2020,04,13,01,18,2.80
2020,04,13,01,19,2.70
2020,04,13,01,20,2.70
2020,04,13,01,21,2.70
2020,04,13,01,22,2.60
2020,04,13,01,23,2.60
2020,04,13,01,24,2.50
2020,04,13,01,25,2.50
2020,04,13,01,26,2.40
2020,04,13,01,27,2.40
2020,04,13,01,28,2.40
2020,04,13,01,29,2.40
2020,04,13,01,30,2.40
2020,04,13,01,31,2.30
2020,04,13,01,32,2.30
2020,04,13,01,33,2.40
2020,04,13,01,34,2.40
2020,04,13,01,35,2.40
2020,04,13,01,36,2.40
2020,04,13,01,37,2.40
2020,04,13,01,38,2.40
2020,04,13,01,39,2.40
2020,04,13,01,40,2.40
2020,04,13,01,41,2.40
2020,04,13,01,42,2.40
2020,04,13,01,43,2.30
2020,04,13,01,44,2.30
2020,04,13,01,45,2.30
2020,04,13,01,46,2.20
2020,04,13,01,47,2.20
2020,04,13,01,48,2.20
2020,04,13,01,49,2.20
2020,04,13,01,50,2.20
2020,04,13,01,51,2.10
2020,04,13,01,52,2.10
2020,04,13,01,53,2.10
2020,04,13,01,54,2.10
2020,04,13,01,55,2.20
2020,04,13,01,56,2.20
2020,04,13,01,57,2.20
2020,04,13,01,58,2.10
2020,04,13,01,59,2.20
2020,04,13,02,00,2.20
2020,04,13,02,01,2.20
2020,04,13,02,02,2.20
2020,04,13,02,03,2.20
2020,04,13,02,04,2.20
2020,04,13,02,05,2.20
2020,04,13,02,06,2.20
2020,04,13,02,07,2.20
2020,04,13,02,08,2.20
2020,04,13,02,09,2.20
2020,04,13,02,10,2.10
2020,04,13,02,11,2.10
2020,04,13,02,12,2.00
2020,04,13,02,13,2.00
2020,04,13,02,14,1.90
2020,04,13,02,15,1.80
2020,04,13,02,16,1.80
2020,04,13,02,17,1.70
2020,04,13,02,18,1.70
2020,04,13,02,19,1.60
2020,04,13,02,20,1.60
2020,04,13,02,21,1.60
2020,04,13,02,22,1.60
2020,04,13,02,23,1.70
2020,04,13,02,24,1.70
2020,04,13,02,25,1.70
2020,04,13,02,26,1.70
2020,04,13,02,27,1.70
2020,04,13,02,28,1.70
2020,04,13,02,29,1.70
2020,04,13,02,30,1.70
2020,04,13,02,31,1.70
2020,04,13,02,32,1.70
2020,04,13,02,33,1.70
2020,04,13,02,34,1.70
2020,04,13,02,35,1.70
2020,04,13,02,36,1.70
2020,04,13,02,37,1.70
2020,04,13,02,38,1.60
2020,04,13,02,39,1.60
2020,04,13,02,40,1.60
2020,04,13,02,41,1.50
2020,04,13,02,42,1.50
2020,04,13,02,43,1.40
2020,04,13,02,44,1.40
2020,04,13,02,45,1.30
2020,04,13,02,46,1.30
2020,04,13,02,47,1.30
2020,04,13,02,48,1.40
2020,04,13,02,49,1.40
2020,04,13,02,50,1.40
2020,04,13,02,51,1.40
2020,04,13,02,52,1.50
2020,04,13,02,53,1.50
2020,04,13,02,54,1.40
2020,04,13,02,55,1.40
2020,04,13,02,56,1.40
2020,04,13,02,57,1.30
2020,04,13,02,58,1.30
2020,04,13,02,59,1.30
2020,04,13,03,00,1.20
2020,04,13,03,01,1.20
2020,04,13,03,02,1.20
2020,04,13,03,03,1.20
2020,04,13,03,04,1.20
2020,04,13,03,05,1.20
2020,04,13,03,06,1.20
2020,04,13,03,07,1.10
2020,04,13,03,08,1.10
2020,04,13,03,09,1.10
2020,04,13,03,10,1.10
2020,04,13,03,11,1.10
2020,04,13,03,12,1.10
2020,04,13,03,13,1.10
2020,04,13,03,14,1.10
2020,04,13,03,15,1.10
2020,04,13,03,16,1.10
2020,04,13,03,17,1.10
2020,04,13,03,18,1.10
2020,04,13,03,19,1.20
2020,04,13,03,20,1.20
2020,04,13,03,21,1.30
2020,04,13,03,22,1.30
2020,04,13,03,23,1.30
2020,04,13,03,24,1.30
2020,04,13,03,25,1.30
2020,04,13,03,26,1.30
2020,04,13,03,27,1.20
2020,04,13,03,28,1.20
2020,04,13,03,29,1.10
2020,04,13,03,30,1.10
2020,04,13,03,31,1.10
2020,04,13,03,32,1.10
2020,04,13,03,33,1.20
2020,04,13,03,34,1.20
2020,04,13,03,35,1.20
2020,04,13,03,36,1.30
2020,04,13,03,37,1.30
2020,04,13,03,38,1.40
2020,04,13,03,39,1.40
2020,04,13,03,40,1.50
2020,04,13,03,41,1.50
2020,04,13,03,42,1.50
2020,04,13,03,43,1.50
2020,04,13,03,44,1.50
2020,04,13,03,45,1.40
2020,04,13,03,46,1.40
2020,04,13,03,47,1.30
2020,04,13,03,48,1.30
2020,04,13,03,49,1.30
2020,04,13,03,50,1.20
2020,04,13,03,51,1.20
2020,04,13,03,52,1.20
2020,04,13,03,53,1.20
2020,04,13,03,54,1.20
2020,04,13,03,55,1.20
2020,04,13,03,56,1.20
2020,04,13,03,57,1.30
2020,04,13,03,58,1.30
2020,04,13,03,59,1.30
2020,04,13,04,00,1.30
2020,04,13,04,01,1.40
2020,04,13,04,02,1.40
2020,04,13,04,03,1.30
2020,04,13,04,04,1.30
2020,04,13,04,05,1.30
2020,04,13,04,06,1.30
2020,04,13,04,07,1.40
2020,04,13,04,08,1.40
2020,04,13,04,09,1.40
2020,04,13,04,10,1.40
2020,04,13,04,11,1.40
2020,04,13,04,12,1.40
2020,04,13,04,13,1.40
2020,04,13,04,14,1.40
2020,04,13,04,15,1.40
2020,04,13,04,16,1.40
2020,04,13,04,17,1.40
2020,04,13,04,18,1.40
2020,04,13,04,19,1.40
2020,04,13,04,20,1.30
2020,04,13,04,21,1.30
2020,04,13,04,22,1.30
2020,04,13,04,23,1.30
2020,04,13,04,24,1.30
2020,04,13,04,25,1.30
2020,04,13,04,26,1.30
2020,04,13,04,27,1.30
2020,04,13,04,28,1.30
2020,04,13,04,29,1.40
2020,04,13,04,30,1.40
2020,04,13,04,31,1.40
2020,04,13,04,32,1.40
2020,04,13,04,33,1.40
2020,04,13,04,34,1.40
2020,04,13,04,35,1.50
2020,04,13,04,36,1.50
2020,04,13,04,37,1.40
2020,04,13,04,38,1.40
2020,04,13,04,39,1.30
2020,04,13,04,40,1.20
2020,04,13,04,41,1.10
2020,04,13,04,42,1.00
2020,04,13,04,43,1.00
2020,04,13,04,44,0.90
2020,04,13,04,45,0.80
2020,04,13,04,46,0.80
2020,04,13,04,47,0.70
2020,04,13,04,48,0.70
2020,04,13,04,49,0.60
2020,04,13,04,50,0.60
2020,04,13,04,51,0.60
2020,04,13,04,52,0.60
2020,04,13,04,53,0.70
2020,04,13,04,54,0.70
2020,04,13,04,55,0.80
2020,04,13,04,56,0.80
2020,04,13,04,57,0.90
2020,04,13,04,58,0.90
2020,04,13,04,59,0.90
2020,04,13,05,00,0.90
2020,04,13,05,01,0.90
2020,04,13,05,02,0.90
2020,04,13,05,03,0.90
2020,04,13,05,04,0.80
2020,04,13,05,05,0.80
2020,04,13,05,06,0.80
2020,04,13,05,07,0.80
2020,04,13,05,08,0.90
2020,04,13,05,09,0.90
2020,04,13,05,10,0.90
2020,04,13,05,11,1.00
2020,04,13,05,12,1.00
2020,04,13,05,13,1.00
2020,04,13,05,14,1.00
2020,04,13,05,15,1.00
2020,04,13,05,16,1.00
2020,04,13,05,17,1.10
2020,04,13,05,18,1.10
2020,04,13,05,19,1.10
2020,04,13,05,20,1.10
2020,04,13,05,21,1.10
2020,04,13,05,22,1.10
2020,04,13,05,23,1.10
2020,04,13,05,24,1.10
2020,04,13,05,25,1.10
2020,04,13,05,26,1.10
2020,04,13,05,27,1.20
2020,04,13,05,28,1.20
2020,04,13,05,29,1.10
2020,04,13,05,30,1.10
2020,04,13,05,31,1.00
2020,04,13,05,32,0.90
2020,04,13,05,33,0.90
2020,04,13,05,34,0.90
2020,04,13,05,35,0.90
2020,04,13,05,36,0.90
2020,04,13,05,37,0.90
2020,04,13,05,38,1.00
2020,04,13,05,39,1.00
2020,04,13,05,40,1.00
2020,04,13,05,41,1.00
2020,04,13,05,42,1.00
2020,04,13,05,43,1.00
2020,04,13,05,44,1.00
2020,04,13,05,45,1.00
2020,04,13,05,46,1.10
2020,04,13,05,47,1.10
2020,04,13,05,48,1.10
2020,04,13,05,49,1.10
2020,04,13,05,50,1.20
2020,04,13,05,51,1.20
2020,04,13,05,52,1.30
2020,04,13,05,53,1.30
2020,04,13,05,54,1.40
2020,04,13,05,55,1.50
2020,04,13,05,56,1.60
2020,04,13,05,57,1.70
2020,04,13,05,58,1.80
2020,04,13,05,59,1.80
2020,04,13,06,00,1.80
2020,04,13,06,01,1.80
2020,04,13,06,02,1.80
2020,04,13,06,03,1.80
2020,04,13,06,04,1.80
2020,04,13,06,05,1.90
2020,04,13,06,06,1.90
2020,04,13,06,07,2.00
2020,04,13,06,08,2.00
2020,04,13,06,09,2.10
2020,04,13,06,10,2.10
2020,04,13,06,11,2.20
2020,04,13,06,12,2.20
2020,04,13,06,13,2.10
2020,04,13,06,14,2.10
2020,04,13,06,15,2.00
2020,04,13,06,16,2.00
2020,04,13,06,17,1.90
2020,04,13,06,18,1.80
2020,04,13,06,19,1.80
2020,04,13,06,20,1.70
2020,04,13,06,21,1.60
2020,04,13,06,22,1.60
2020,04,13,06,23,1.50
2020,04,13,06,24,1.40
2020,04,13,06,25,1.40
2020,04,13,06,26,1.30
2020,04,13,06,27,1.30
2020,04,13,06,28,1.20
2020,04,13,06,29,1.20
2020,04,13,06,30,1.10
2020,04,13,06,31,1.10
2020,04,13,06,32,1.00
2020,04,13,06,33,1.00
2020,04,13,06,34,0.90
2020,04,13,06,35,0.90
2020,04,13,06,36,0.80
2020,04,13,06,37,0.80
2020,04,13,06,38,0.80
2020,04,13,06,39,0.80
2020,04,13,06,40,0.80
2020,04,13,06,41,0.80
2020,04,13,06,42,0.80
2020,04,13,06,43,0.80
2020,04,13,06,44,0.80
2020,04,13,06,45,0.90
2020,04,13,06,46,1.00
2020,04,13,06,47,1.10
2020,04,13,06,48,1.10
2020,04,13,06,49,1.20
2020,04,13,06,50,1.20
2020,04,13,06,51,1.30
2020,04,13,06,52,1.30
2020,04,13,06,53,1.40
2020,04,13,06,54,1.40
2020,04,13,06,55,1.40
2020,04,13,06,56,1.40
2020,04,13,06,57,1.40
2020,04,13,06,58,1.50
2020,04,13,06,59,1.50
2020,04,13,07,00,1.50
2020,04,13,07,01,1.50
2020,04,13,07,02,1.50
2020,04,13,07,03,1.50
2020,04,13,07,04,1.60
2020,04,13,07,05,1.60
2020,04,13,07,06,1.50
2020,04,13,07,07,1.50
2020,04,13,07,08,1.40
2020,04,13,07,09,1.40
2020,04,13,07,10,1.30
2020,04,13,07,11,1.30
2020,04,13,07,12,1.30
2020,04,13,07,13,1.30
2020,04,13,07,14,1.30
2020,04,13,07,15,1.30
2020,04,13,07,16,1.30
2020,04,13,07,17,1.30
2020,04,13,07,18,1.30
2020,04,13,07,19,1.40
2020,04,13,07,20,1.40
2020,04,13,07,21,1.40
2020,04,13,07,22,1.40
2020,04,13,07,23,1.50
2020,04,13,07,24,1.50
2020,04,13,07,25,1.60
2020,04,13,07,26,1.60
2020,04,13,07,27,1.60
2020,04,13,07,28,1.70
2020,04,13,07,29,1.70
2020,04,13,07,30,1.70
2020,04,13,07,31,1.80
2020,04,13,07,32,1.80
2020,04,13,07,33,1.90
2020,04,13,07,34,2.00
2020,04,13,07,35,2.00
2020,04,13,07,36,2.10
2020,04,13,07,37,2.20
2020,04,13,07,38,2.20
2020,04,13,07,39,2.30
2020,04,13,07,40,2.40
2020,04,13,07,41,2.50
2020,04,13,07,42,2.60
2020,04,13,07,43,2.70
2020,04,13,07,44,2.80
2020,04,13,07,45,2.90
2020,04,13,07,46,2.90
2020,04,13,07,47,3.00
2020,04,13,07,48,3.10
2020,04,13,07,49,3.10
2020,04,13,07,50,3.20
2020,04,13,07,51,3.30
2020,04,13,07,52,3.30
2020,04,13,07,53,3.40
2020,04,13,07,54,3.50
2020,04,13,07,55,3.60
2020,04,13,07,56,3.60
2020,04,13,07,57,3.70
2020,04,13,07,58,3.70
2020,04,13,07,59,3.80
2020,04,13,08,00,3.80
2020,04,13,08,01,3.80
2020,04,13,08,02,3.90
2020,04,13,08,03,4.00
2020,04,13,08,04,4.00
2020,04,13,08,05,4.10
2020,04,13,08,06,4.20
2020,04,13,08,07,4.30
2020,04,13,08,08,4.30
2020,04,13,08,09,4.40
2020,04,13,08,10,4.50
2020,04,13,08,11,4.60
2020,04,13,08,12,4.70
2020,04,13,08,13,4.80
2020,04,13,08,14,4.90
2020,04,13,08,15,4.90
2020,04,13,08,16,5.10
2020,04,13,08,17,5.20
2020,04,13,08,18,5.30
2020,04,13,08,19,5.50
2020,04,13,08,20,5.60
2020,04,13,08,21,5.60
2020,04,13,08,22,5.70
2020,04,13,08,23,5.80
2020,04,13,08,24,5.80
2020,04,13,08,25,6.00
2020,04,13,08,26,6.00
2020,04,13,08,27,6.10
2020,04,13,08,28,6.20
2020,04,13,08,29,6.30
2020,04,13,08,30,6.40
2020,04,13,08,31,6.50
2020,04,13,08,32,6.60
2020,04,13,08,33,6.70
2020,04,13,08,34,6.80
2020,04,13,08,35,6.80
2020,04,13,08,36,6.90
2020,04,13,08,37,7.00
2020,04,13,08,38,7.10
2020,04,13,08,39,7.20
2020,04,13,08,40,7.30
2020,04,13,08,41,7.50
2020,04,13,08,42,7.70
2020,04,13,08,43,7.80
2020,04,13,08,44,8.00
2020,04,13,08,45,8.20
2020,04,13,08,46,8.30
2020,04,13,08,47,8.40
2020,04,13,08,48,8.50
2020,04,13,08,49,8.60
2020,04,13,08,50,8.70
2020,04,13,08,51,8.80
2020,04,13,08,52,8.90
2020,04,13,08,53,8.90
2020,04,13,08,54,9.00
2020,04,13,08,55,9.00
2020,04,13,08,56,9.10
2020,04,13,08,57,9.10
2020,04,13,08,58,9.20
2020,04,13,08,59,9.20
2020,04,13,09,00,9.30
2020,04,13,09,01,9.30
2020,04,13,09,02,9.40
2020,04,13,09,03,9.40
2020,04,13,09,04,9.40
2020,04,13,09,05,9.40
2020,04,13,09,06,9.50
2020,04,13,09,07,9.50
2020,04,13,09,08,9.50
2020,04,13,09,09,9.50
2020,04,13,09,10,9.50
2020,04,13,09,11,9.50
2020,04,13,09,12,9.50
2020,04,13,09,13,9.60
2020,04,13,09,14,9.60
2020,04,13,09,15,9.60
2020,04,13,09,16,9.60
2020,04,13,09,17,9.60
2020,04,13,09,18,9.70
2020,04,13,09,19,9.70
2020,04,13,09,20,9.70
2020,04,13,09,21,9.70
2020,04,13,09,22,9.70
2020,04,13,09,23,9.60
2020,04,13,09,24,9.60
2020,04,13,09,25,9.60
2020,04,13,09,26,9.70
2020,04,13,09,27,9.70
2020,04,13,09,28,9.70
2020,04,13,09,29,9.80
2020,04,13,09,30,9.80
2020,04,13,09,31,9.80
2020,04,13,09,32,9.80
2020,04,13,09,33,9.80
2020,04,13,09,34,9.80
2020,04,13,09,35,9.90
2020,04,13,09,36,9.90
2020,04,13,09,37,9.90
2020,04,13,09,38,9.90
2020,04,13,09,39,9.90
2020,04,13,09,40,9.90
2020,04,13,09,41,10.00
2020,04,13,09,42,10.00
2020,04,13,09,43,10.10
2020,04,13,09,44,10.10
2020,04,13,09,45,10.20
2020,04,13,09,46,10.20
2020,04,13,09,47,10.20
2020,04,13,09,48,10.30
2020,04,13,09,49,10.30
2020,04,13,09,50,10.30
2020,04,13,09,51,10.20
2020,04,13,09,52,10.20
2020,04,13,09,53,10.30
2020,04,13,09,54,10.30
2020,04,13,09,55,10.30
2020,04,13,09,56,10.30
2020,04,13,09,57,10.30
2020,04,13,09,58,10.30
2020,04,13,09,59,10.40
2020,04,13,10,00,10.40
2020,04,13,10,01,10.50
2020,04,13,10,02,10.50
2020,04,13,10,03,10.50
2020,04,13,10,04,10.60
2020,04,13,10,05,10.60
2020,04,13,10,06,10.60
2020,04,13,10,07,10.60
2020,04,13,10,08,10.60
2020,04,13,10,09,10.60
2020,04,13,10,10,10.70
2020,04,13,10,11,10.70
2020,04,13,10,12,10.80
2020,04,13,10,13,10.80
2020,04,13,10,14,10.80
2020,04,13,10,15,10.80
2020,04,13,10,16,10.90
2020,04,13,10,17,10.90
2020,04,13,10,18,10.90
2020,04,13,10,19,10.90
2020,04,13,10,20,10.90
2020,04,13,10,21,10.90
2020,04,13,10,22,11.00
2020,04,13,10,23,11.00
2020,04,13,10,24,11.00
2020,04,13,10,25,11.10
2020,04,13,10,26,11.10
2020,04,13,10,27,11.10
2020,04,13,10,28,11.20
2020,04,13,10,29,11.20
2020,04,13,10,30,11.20
2020,04,13,10,31,11.20
2020,04,13,10,32,11.30
2020,04,13,10,33,11.30
2020,04,13,10,34,11.30
2020,04,13,10,35,11.40
2020,04,13,10,36,11.40
2020,04,13,10,37,11.40
2020,04,13,10,38,11.40
2020,04,13,10,39,11.40
2020,04,13,10,40,11.40
2020,04,13,10,41,11.50
2020,04,13,10,42,11.50
2020,04,13,10,43,11.50
2020,04,13,10,44,11.50
2020,04,13,10,45,11.60
2020,04,13,10,46,11.60
2020,04,13,10,47,11.60
2020,04,13,10,48,11.70
2020,04,13,10,49,11.70
2020,04,13,10,50,11.70
2020,04,13,10,51,11.80
2020,04,13,10,52,11.80
2020,04,13,10,53,11.80
2020,04,13,10,54,11.90
2020,04,13,10,55,12.00
2020,04,13,10,56,12.10
2020,04,13,10,57,12.20
2020,04,13,10,58,12.30
2020,04,13,10,59,12.30
2020,04,13,11,00,12.40
2020,04,13,11,01,12.40
2020,04,13,11,02,12.40
2020,04,13,11,03,12.50
2020,04,13,11,04,12.50
2020,04,13,11,05,12.50
2020,04,13,11,06,12.50
2020,04,13,11,07,12.50
2020,04,13,11,08,12.50
2020,04,13,11,09,12.50
2020,04,13,11,10,12.50
2020,04,13,11,11,12.50
2020,04,13,11,12,12.50
2020,04,13,11,13,12.60
2020,04,13,11,14,12.70
2020,04,13,11,15,12.80
2020,04,13,11,16,12.80
2020,04,13,11,17,12.80
2020,04,13,11,18,12.90
2020,04,13,11,19,12.90
2020,04,13,11,20,12.90
2020,04,13,11,21,12.80
2020,04,13,11,22,12.80
2020,04,13,11,23,12.80
2020,04,13,11,24,12.80
2020,04,13,11,25,12.90
2020,04,13,11,26,12.90
2020,04,13,11,27,13.00
2020,04,13,11,28,13.10
2020,04,13,11,29,13.20
2020,04,13,11,30,13.30
2020,04,13,11,31,13.30
2020,04,13,11,32,13.40
2020,04,13,11,33,13.40
2020,04,13,11,34,13.40
2020,04,13,11,35,13.30
2020,04,13,11,36,13.30
2020,04,13,11,37,13.40
2020,04,13,11,38,13.40
2020,04,13,11,39,13.40
2020,04,13,11,40,13.40
2020,04,13,11,41,13.40
2020,04,13,11,42,13.40
2020,04,13,11,43,13.50
2020,04,13,11,44,13.50
2020,04,13,11,45,13.50
2020,04,13,11,46,13.40
2020,04,13,11,47,13.40
2020,04,13,11,48,13.30
2020,04,13,11,49,13.30
2020,04,13,11,50,13.20
2020,04,13,11,51,13.20
2020,04,13,11,52,13.20
2020,04,13,11,53,13.30
2020,04,13,11,54,13.30
2020,04,13,11,55,13.20
2020,04,13,11,56,13.20
2020,04,13,11,57,13.20
2020,04,13,11,58,13.20
2020,04,13,11,59,13.20
2020,04,13,12,00,13.20
2020,04,13,12,01,13.30
2020,04,13,12,02,13.30
2020,04,13,12,03,13.40
2020,04,13,12,04,13.40
2020,04,13,12,05,13.50
2020,04,13,12,06,13.60
2020,04,13,12,07,13.60
2020,04,13,12,08,13.70
2020,04,13,12,09,13.80
2020,04,13,12,10,13.90
2020,04,13,12,11,14.00
2020,04,13,12,12,14.10
2020,04,13,12,13,14.10
2020,04,13,12,14,14.20
2020,04,13,12,15,14.10
2020,04,13,12,16,13.90
2020,04,13,12,17,13.80
2020,04,13,12,18,13.70
2020,04,13,12,19,13.60
2020,04,13,12,20,13.50
2020,04,13,12,21,13.20
2020,04,13,12,22,13.10
2020,04,13,12,23,12.90
2020,04,13,12,24,12.80
2020,04,13,12,25,12.80
2020,04,13,12,26,12.70
2020,04,13,12,27,12.70
2020,04,13,12,28,12.80
2020,04,13,12,29,12.80
2020,04,13,12,30,12.80
2020,04,13,12,31,12.90
2020,04,13,12,32,12.90
2020,04,13,12,33,12.90
2020,04,13,12,34,12.90
2020,04,13,12,35,13.00
2020,04,13,12,36,13.10
2020,04,13,12,37,13.20
2020,04,13,12,38,13.30
2020,04,13,12,39,13.40
2020,04,13,12,40,13.40
2020,04,13,12,41,13.40
2020,04,13,12,42,13.50
2020,04,13,12,43,13.70
2020,04,13,12,44,13.80
2020,04,13,12,45,13.80
2020,04,13,12,46,13.80
2020,04,13,12,47,13.80
2020,04,13,12,48,13.90
2020,04,13,12,49,14.00
2020,04,13,12,50,14.10
2020,04,13,12,51,14.20
2020,04,13,12,52,14.20
2020,04,13,12,53,14.10
2020,04,13,12,54,14.00
2020,04,13,12,55,14.00
2020,04,13,12,56,13.90
2020,04,13,12,57,13.80
2020,04,13,12,58,13.80
2020,04,13,12,59,13.80
2020,04,13,13,00,13.80
2020,04,13,13,01,13.80
2020,04,13,13,02,13.80
2020,04,13,13,03,13.80
2020,04,13,13,04,13.80
2020,04,13,13,05,13.90
2020,04,13,13,06,14.00
2020,04,13,13,07,14.00
2020,04,13,13,08,14.00
2020,04,13,13,09,14.00
2020,04,13,13,10,14.00
2020,04,13,13,11,13.90
2020,04,13,13,12,13.90
2020,04,13,13,13,13.90
2020,04,13,13,14,14.00
2020,04,13,13,15,14.00
2020,04,13,13,16,14.10
2020,04,13,13,17,14.10
2020,04,13,13,18,14.10
2020,04,13,13,19,14.20
2020,04,13,13,20,14.20
2020,04,13,13,21,14.10
2020,04,13,13,22,14.00
2020,04,13,13,23,13.90
2020,04,13,13,24,13.80
2020,04,13,13,25,13.80
2020,04,13,13,26,13.80
2020,04,13,13,27,13.80
2020,04,13,13,28,13.80
2020,04,13,13,29,13.80
2020,04,13,13,30,13.80
2020,04,13,13,31,13.80
2020,04,13,13,32,13.80
2020,04,13,13,33,13.80
2020,04,13,13,34,13.70
2020,04,13,13,35,13.70
2020,04,13,13,36,13.70
2020,04,13,13,37,13.70
2020,04,13,13,38,13.70
2020,04,13,13,39,13.60
2020,04,13,13,40,13.50
2020,04,13,13,41,13.50
2020,04,13,13,42,13.40
2020,04,13,13,43,13.40
2020,04,13,13,44,13.40
2020,04,13,13,45,13.30
2020,04,13,13,46,13.30
2020,04,13,13,47,13.30
2020,04,13,13,48,13.30
2020,04,13,13,49,13.30
2020,04,13,13,50,13.30
2020,04,13,13,51,13.30
2020,04,13,13,52,13.30
2020,04,13,13,53,13.20
2020,04,13,13,54,13.20
2020,04,13,13,55,13.20
2020,04,13,13,56,13.20
2020,04,13,13,57,13.30
2020,04,13,13,58,13.30
2020,04,13,13,59,13.30
2020,04,13,14,00,13.40
2020,04,13,14,01,13.40
2020,04,13,14,02,13.50
2020,04,13,14,03,13.60
2020,04,13,14,04,13.60
2020,04,13,14,05,13.60
2020,04,13,14,06,13.60
2020,04,13,14,07,13.60
2020,04,13,14,08,13.60
2020,04,13,14,09,13.50
2020,04,13,14,10,13.50
2020,04,13,14,11,13.50
2020,04,13,14,12,13.50
2020,04,13,14,13,13.50
2020,04,13,14,14,13.50
2020,04,13,14,15,13.60
2020,04,13,14,16,13.60
2020,04,13,14,17,13.60
2020,04,13,14,18,13.50
2020,04,13,14,19,13.40
2020,04,13,14,20,13.20
2020,04,13,14,21,13.10
2020,04,13,14,22,13.00
2020,04,13,14,23,12.90
2020,04,13,14,24,12.80
2020,04,13,14,25,12.80
2020,04,13,14,26,12.90
2020,04,13,14,27,12.90
2020,04,13,14,28,12.90
2020,04,13,14,29,12.90
2020,04,13,14,30,12.90
2020,04,13,14,31,12.90
2020,04,13,14,32,12.80
2020,04,13,14,33,12.80
2020,04,13,14,34,12.70
2020,04,13,14,35,12.70
2020,04,13,14,36,12.70
2020,04,13,14,37,12.70
2020,04,13,14,38,12.70
2020,04,13,14,39,12.70
2020,04,13,14,40,12.70
2020,04,13,14,41,12.60
2020,04,13,14,42,12.60
2020,04,13,14,43,12.70
2020,04,13,14,44,12.70
2020,04,13,14,45,12.70
2020,04,13,14,46,12.70
2020,04,13,14,47,12.60
2020,04,13,14,48,12.60
2020,04,13,14,49,12.70
2020,04,13,14,50,12.70
2020,04,13,14,51,12.60
2020,04,13,14,52,12.60
2020,04,13,14,53,12.70
2020,04,13,14,54,12.70
2020,04,13,14,55,12.80
2020,04,13,14,56,12.80
2020,04,13,14,57,12.90
2020,04,13,14,58,12.90
2020,04,13,14,59,13.10
2020,04,13,15,00,13.10
2020,04,13,15,01,13.20
2020,04,13,15,02,13.20
2020,04,13,15,03,13.30
2020,04,13,15,04,13.40
2020,04,13,15,05,13.50
2020,04,13,15,06,13.60
2020,04,13,15,07,13.70
2020,04,13,15,08,13.70
2020,04,13,15,09,13.60
2020,04,13,15,10,13.60
2020,04,13,15,11,13.50
2020,04,13,15,12,13.40
2020,04,13,15,13,13.50
2020,04,13,15,14,13.50
2020,04,13,15,15,13.50
2020,04,13,15,16,13.50
2020,04,13,15,17,13.40
2020,04,13,15,18,13.30
2020,04,13,15,19,13.30
2020,04,13,15,20,13.30
2020,04,13,15,21,13.30
2020,04,13,15,22,13.30
2020,04,13,15,23,13.30
2020,04,13,15,24,13.20
2020,04,13,15,25,13.20
2020,04,13,15,26,13.20
2020,04,13,15,27,13.20
2020,04,13,15,28,13.20
2020,04,13,15,29,13.20
2020,04,13,15,30,13.20
2020,04,13,15,31,13.20
2020,04,13,15,32,13.20
2020,04,13,15,33,13.30
2020,04,13,15,34,13.30
2020,04,13,15,35,13.40
2020,04,13,15,36,13.40
2020,04,13,15,37,13.40
2020,04,13,15,38,13.40
2020,04,13,15,39,13.40
2020,04,13,15,40,13.40
2020,04,13,15,41,13.50
2020,04,13,15,42,13.50
2020,04,13,15,43,13.60
2020,04,13,15,44,13.60
2020,04,13,15,45,13.60
2020,04,13,15,46,13.60
2020,04,13,15,47,13.50
2020,04,13,15,48,13.60
2020,04,13,15,49,13.60
2020,04,13,15,50,13.60
2020,04,13,15,51,13.60
2020,04,13,15,52,13.60
2020,04,13,15,53,13.70
2020,04,13,15,54,13.70
2020,04,13,15,55,13.80
2020,04,13,15,56,13.80
2020,04,13,15,57,13.80
2020,04,13,15,58,13.80
2020,04,13,15,59,13.80
2020,04,13,16,00,13.80
2020,04,13,16,01,13.80
2020,04,13,16,02,13.80
2020,04,13,16,03,13.90
2020,04,13,16,04,13.90
2020,04,13,16,05,13.90
2020,04,13,16,06,13.90
2020,04,13,16,07,13.90
2020,04,13,16,08,13.90
2020,04,13,16,09,14.00
2020,04,13,16,10,14.00
2020,04,13,16,11,14.00
2020,04,13,16,12,14.00
2020,04,13,16,13,14.10
2020,04,13,16,14,14.10
2020,04,13,16,15,14.10
2020,04,13,16,16,14.00
2020,04,13,16,17,13.90
2020,04,13,16,18,13.90
2020,04,13,16,19,13.90
2020,04,13,16,20,13.90
2020,04,13,16,21,13.90
2020,04,13,16,22,13.90
2020,04,13,16,23,13.90
2020,04,13,16,24,13.80
2020,04,13,16,25,13.90
2020,04,13,16,26,13.90
2020,04,13,16,27,13.90
2020,04,13,16,28,13.90
2020,04,13,16,29,13.90
2020,04,13,16,30,13.90
2020,04,13,16,31,14.00
2020,04,13,16,32,14.00
2020,04,13,16,33,14.00
2020,04,13,16,34,13.90
2020,04,13,16,35,13.90
2020,04,13,16,36,13.90
2020,04,13,16,37,14.00
2020,04,13,16,38,14.10
2020,04,13,16,39,14.10
2020,04,13,16,40,14.10
2020,04,13,16,41,14.10
2020,04,13,16,42,14.20
2020,04,13,16,43,14.20
2020,04,13,16,44,14.20
2020,04,13,16,45,14.20
2020,04,13,16,46,14.20
2020,04,13,16,47,14.20
2020,04,13,16,48,14.20
2020,04,13,16,49,14.10
2020,04,13,16,50,14.10
2020,04,13,16,51,14.00
2020,04,13,16,52,14.00
2020,04,13,16,53,14.00
2020,04,13,16,54,13.90
2020,04,13,16,55,13.70
2020,04,13,16,56,13.60
2020,04,13,16,57,13.50
2020,04,13,16,58,13.50
2020,04,13,16,59,13.40
2020,04,13,17,00,13.30
2020,04,13,17,01,13.20
2020,04,13,17,02,13.10
2020,04,13,17,03,13.00
2020,04,13,17,04,13.00
2020,04,13,17,05,12.90
2020,04,13,17,06,12.80
2020,04,13,17,07,12.80
2020,04,13,17,08,12.70
2020,04,13,17,09,12.50
2020,04,13,17,10,12.40
2020,04,13,17,11,12.30
2020,04,13,17,12,12.30
2020,04,13,17,13,12.30
2020,04,13,17,14,12.30
2020,04,13,17,15,12.40
2020,04,13,17,16,12.40
2020,04,13,17,17,12.50
2020,04,13,17,18,12.50
2020,04,13,17,19,12.60
2020,04,13,17,20,12.60
2020,04,13,17,21,12.60
2020,04,13,17,22,12.60
2020,04,13,17,23,12.70
2020,04,13,17,24,12.70
2020,04,13,17,25,12.70
2020,04,13,17,26,12.70
2020,04,13,17,27,12.70
2020,04,13,17,28,12.70
2020,04,13,17,29,12.80
2020,04,13,17,30,12.70
2020,04,13,17,31,12.80
2020,04,13,17,32,12.80
2020,04,13,17,33,12.80
2020,04,13,17,34,12.70
2020,04,13,17,35,12.70
2020,04,13,17,36,12.80
2020,04,13,17,37,12.80
2020,04,13,17,38,12.80
2020,04,13,17,39,12.80
2020,04,13,17,40,12.80
2020,04,13,17,41,12.80
2020,04,13,17,42,12.70
2020,04,13,17,43,12.70
2020,04,13,17,44,12.70